星链-2055 (STARLINK-2055 )

导读 | 豆包AI

STARLINK-2055是美国SpaceX星链(Starlink)项目的卫星,于2021年1月20日发射升空,属于星链星座的组成部分。星链项目旨在构建全球卫星互联网星座,为全球范围提供低延迟、高速率的宽带互联网服务,尤其为偏远地区、海上和航空等场景提供网络覆盖支持。该卫星运行在近地轨道,依托星座组网设计,持续推进全球卫星互联网的部署与服务能力建设,是SpaceX大规模星座组网计划中的一颗在轨运营卫星,支撑星链系统的全球覆盖目标逐步落地。

Basic Information
目录编号:
47358
目录名称:
STARLINK-2055
国际标识:
2021-005K
轨道中心:
EARTH
卫星名称:
星链-2055
卫星全名:
星链-2055 (STARLINK-2055 )
卫星状态:
在轨 (已飞行1879 天)
发射日期:
2021-01-20 UTC
国别 :
美国 (US)
星等 :
--
Orbit Information
数据来源 国际轨道数据 AOE轨道数据
星历时间 2026-03-13T13:29:59+0800
1天前
查看轨道信息
2026-03-10T12:00:00+0800
4天前
查看轨道信息
半长轴 6925.365km 6925.344km
偏心率 0.0001556 0.0001897
轨道倾角 53.055° 53.055°
近地点辐角 88.090° 92.040°
升交点赤经 15.720° 29.470°
平近点角 272.027° 211.048°
近地点 546.15km 545.893km
远地点 548.306km 548.521km
周期 95.592分钟 95.592分钟
每日圈数 15.063949 15.064018
Detailed Information
固有亮度:
5
最大亮度:
2.5
卫星平台:
Starlink V1.0
覆盖范围:
全球
运营商:
太空探索技术公司
运营商所在国:
美国
制造商(研发单位):
太空探索技术公司
制造商所在国:
美国
使用方式:
暂无
Satellite Introduction
星链(Starlink)计划是由太空探索技术公司(SpaceX)提出的一个巨型低轨卫星互联网星座项目,计划在2019年至2024年间在太空搭建由约1.2万颗卫星组成的“星链”网络,其中1584颗将部署在地球上空550千米处的近地轨道,并从2020年开始工作。该卫星仍在工作。
2D Orbit Map
3D Orbit Map
Orbit Altitude Analysis Chart
Orbit Inclination Analysis Chart
Orbit Comprehensive Analysis Chart
View Comprehensive Chart